Content
SEND FEEDBACK

Daily
Averages
Monthly
Summary
United States of America

ANN ARBOR, MICHIGAN


Home > North America > United States > Michigan
Elevation: 231 meters     Latitude: 42 17N     Longitude: 083 43W

WEATHER
 
SELECT A DAY
Number of Records: 209,112;   Date Range: 1/1/95 - 12/24/14
 
SHARE

PRINT THIS DATA

[ ← Previous Day ]
WEATHER ALMANAC - 29 APRIL, 2013
[ Next Day → ]
[ °F ]   °C
Weather ElementAverageHighLow
Temperature14.8 °C21.1 °C (4:53 pm)10.6 °C (5:53 am)
Dewpoint11.4 °C12.2 °C (10:53 pm)10.6 °C (4:53 am)
Humidity82.1 %100 % (1:53 am)53 % (4:53 pm)
Barometer1012.5 hPa1013.9 hPa (9:53 am)1010.8 hPa (1:53 am)
Wind Speed7.7 km/h16.7 km/h (4:53 pm)
Weather ElementAverage
Visibility11.9 km
Wind DirectionSSW (200.8 °)

Weather ElementTotal
Precipitation1.02 mm
Heating Degree Days2.5 (Base 18.3)
Growing Degree Days5.9 (Base 10)
Averaged from 36 records on 29 April, 2013
WEATHER CONDITIONS BREAKOUT
WIND DIRECTION BREAKOUT
WEATHER BY HOUR - 29 APRIL, 2013
[ °F ]   °C
Local TimeTemperatureDewpointHumidityBarometerVisibilityWind DirectionWind SpeedGust SpeedPrecipitationEventsConditions
1:53 AM11.7 °C11.7 °C100 %1010.8 hPa0.3 kmCalmFogFog
2:35 AM12 °C12 °C100 %1010.8 hPa2.4 kmNW (310°)7.4 km/hOvercast
2:48 AM12 °C12 °C100 %1010.8 hPa4 kmCalm0.25 mmOvercast
2:53 AM11.7 °C11.7 °C100 %1010.8 hPa4 kmWest (280°)5.6 km/h0.25 mmOvercast
3:29 AM12 °C11 °C94 %1010.8 hPa3.2 kmWSW (250°)5.6 km/h0.25 mmRainLight Rain
3:53 AM11.7 °C11.7 °C100 %1011.2 hPa4.8 kmNW (310°)7.4 km/h0.25 mmOvercast
4:01 AM12 °C12 °C100 %1010.8 hPa8 kmNW (310°)9.3 km/hOvercast
4:17 AM12 °C12 °C100 %1011.2 hPa9.7 kmWNW (300°)5.6 km/hOvercast
4:53 AM11.1 °C10.6 °C97 %1011.5 hPa9.7 kmWest (280°)7.4 km/hOvercast
5:12 AM11 °C11 °C100 %1011.5 hPa11.3 kmWNW (290°)11.1 km/hOvercast
5:53 AM10.6 °C10.6 °C100 %1011.9 hPa8 kmWest (280°)5.6 km/hOvercast
6:53 AM11.7 °C10.6 °C93 %1012.5 hPa9.7 kmWest (270°)5.6 km/hOvercast
7:53 AM11.7 °C11.1 °C96 %1012.9 hPa6.4 kmCalmOvercast
8:53 AM12.2 °C11.1 °C93 %1013.5 hPa8 kmWest (260°)9.3 km/hOvercast
9:16 AM13 °C12 °C94 %1013.5 hPa11.3 kmWest (260°)9.3 km/hOvercast
9:23 AM13 °C12 °C94 %1013.5 hPa11.3 kmWest (270°)11.1 km/hOvercast
9:53 AM13.9 °C11.7 °C87 %1013.9 hPa14.5 kmWest (270°)7.4 km/hOvercast
9:59 AM13 °C12 °C94 %1013.5 hPa14.5 kmWNW (290°)7.4 km/hOvercast
10:07 AM14 °C12 °C88 %1013.9 hPa16.1 kmWNW (290°)9.3 km/hOvercast
10:53 AM15 °C11.1 °C78 %1013.9 hPa16.1 kmWNW (290°)11.1 km/hOvercast
11:34 AM16 °C11 °C72 %1013.9 hPa16.1 kmVariable11.1 km/hMostly Cloudy
11:53 AM16.1 °C10.6 °C70 %1013.9 hPa16.1 kmWest (280°)7.4 km/hOvercast
12:37 PM18 °C11 °C64 %1013.5 hPa16.1 kmCalmOvercast
12:49 PM17 °C11 °C68 %1013.5 hPa16.1 kmCalmOvercast
12:53 PM17.2 °C11.1 °C67 %1013.5 hPa16.1 kmWNW (290°)9.3 km/hOvercast
1:00 PM18 °C12 °C68 %1013.5 hPa16.1 kmSW (220°)11.1 km/hOvercast
2:53 PM20 °C11.1 °C56 %1012.9 hPa16.1 kmSSE (150°)7.4 km/hOvercast
3:53 PM20 °C11.1 °C56 %1012.9 hPa16.1 kmVariable5.6 km/hMostly Cloudy
4:53 PM21.1 °C11.1 °C53 %1012.2 hPa16.1 kmSSW (210°)16.7 km/hMostly Cloudy
5:53 PM20.6 °C11.1 °C54 %1012.5 hPa16.1 kmSouth (180°)14.8 km/hScattered Clouds
6:53 PM20 °C11.1 °C56 %1012.2 hPa16.1 kmSouth (180°)13 km/hPartly Cloudy
7:53 PM18.9 °C11.1 °C60 %1012.5 hPa16.1 kmSSW (200°)9.3 km/hClear
8:53 PM17.2 °C10.6 °C65 %1012.9 hPa16.1 kmSouth (180°)7.4 km/hClear
9:53 PM15.6 °C11.7 °C78 %1013.2 hPa16.1 kmSSE (160°)7.4 km/hClear
10:53 PM15.6 °C12.2 °C80 %1013.9 hPa16.1 kmSouth (180°)11.1 km/hScattered Clouds
11:53 PM15.6 °C12.2 °C80 %1013.9 hPa16.1 kmSouth (190°)11.1 km/h0 mmRainLight Rain
Hourly data recorded from KARB, located 0 kilometers away from Ann Arbor, Michigan







STORIES FROM OUR PARTNERS